| time (UTC) | temp C | wind direction | speed KPH | gust KPH | rain 1hr cm | rain 24hr cm | rain mn cm | humidity % | barometer mb |
| 20260505111944 | 13 | 170 | 3.2 | 4.8 | 0.00 | 0.00 | 0.00 | 83 | 1005.9 |
| 20260505111438 | 13 | 200 | 1.6 | 3.2 | 0.00 | 0.00 | 0.00 | 84 | 1005.9 |
| 20260505110935 | 12 | 165 | 3.2 | 6.4 | 0.00 | 0.00 | 0.00 | 85 | 1005.9 |
| 20260505110432 | 12 | 186 | 1.6 | 4.8 | 0.00 | 0.00 | 0.00 | 85 | 1006.0 |
| 20260505101903 | 10 | 185 | 1.6 | 1.6 | 0.00 | 0.00 | 0.00 | 92 | 1005.8 |
| 20260505101357 | 10 | 117 | 0.0 | 4.8 | 0.00 | 0.00 | 0.00 | 92 | 1005.8 |
| 20260505100854 | 10 | 186 | 1.6 | 4.8 | 0.00 | 0.00 | 0.00 | 92 | 1005.7 |
| 20260505100350 | 10 | 180 | 1.6 | 6.4 | 0.00 | 0.00 | 0.00 | 92 | 1005.7 |
| 20260505095846 | 10 | 140 | 4.8 | 4.8 | 0.00 | 0.00 | 0.00 | 93 | 1005.6 |
| 20260505095344 | 10 | 166 | 4.8 | 6.4 | 0.00 | 0.00 | 0.00 | 94 | 1005.4 |
| 20260505094839 | 10 | 99 | 3.2 | 3.2 | 0.00 | 0.00 | 0.00 | 95 | 1005.5 |
| 20260505094336 | 10 | 243 | 0.0 | 8.0 | 0.00 | 0.00 | 0.00 | 95 | 1005.5 |
| 20260505093832 | 10 | 213 | 3.2 | 3.2 | 0.00 | 0.00 | 0.00 | 95 | 1005.4 |
| 20260505093330 | 10 | 165 | 0.0 | 3.2 | 0.00 | 0.00 | 0.00 | 95 | 1005.4 |
| 20260505092827 | 10 | 171 | 3.2 | 4.8 | 0.00 | 0.00 | 0.00 | 95 | 1005.6 |
| 20260505092325 | 10 | 154 | 1.6 | 3.2 | 0.00 | 0.00 | 0.00 | 95 | 1005.5 |
| 20260505091822 | 10 | 209 | 4.8 | 6.4 | 0.00 | 0.00 | 0.00 | 95 | 1005.6 |
| 20260505091320 | 10 | 234 | 0.0 | 6.4 | 0.00 | 0.00 | 0.00 | 95 | 1005.6 |
| 20260505090818 | 9 | 106 | 3.2 | 3.2 | 0.00 | 0.00 | 0.00 | 97 | 1005.5 |
| 20260505090316 | 10 | 139 | 3.2 | 6.4 | 0.00 | 0.00 | 0.00 | 97 | 1005.4 |
| 20260505085813 | 10 | 140 | 1.6 | 3.2 | 0.00 | 0.00 | 0.00 | 97 | 1005.7 |
| 20260505085310 | 10 | 26 | 1.6 | 1.6 | 0.00 | 0.00 | 0.00 | 97 | 1005.6 |
| 20260505084808 | 10 | 217 | 8.0 | 8.0 | 0.00 | 0.00 | 0.00 | 98 | 1005.4 |
| 20260505084307 | 10 | 210 | 3.2 | 6.4 | 0.00 | 0.00 | 0.00 | 99 | 1005.4 |
| 20260505083803 | 9 | 121 | 4.8 | 4.8 | 0.00 | 0.00 | 0.00 | 99 | 1005.5 |
| 20260505083300 | 9 | 114 | 3.2 | 4.8 | 0.00 | 0.00 | 0.00 | 98 | 1005.6 |
| 20260505082756 | 9 | 128 | 3.2 | 3.2 | 0.00 | 0.00 | 0.00 | 98 | 1005.7 |
| 20260505082253 | 10 | 157 | 1.6 | 3.2 | 0.00 | 0.00 | 0.00 | 98 | 1005.8 |
| 20260505081749 | 10 | 166 | 1.6 | 4.8 | 0.00 | 0.00 | 0.00 | 98 | 1006.0 |
| 20260505081246 | 10 | 139 | 3.2 | 4.8 | 0.00 | 0.00 | 0.00 | 98 | 1005.8 |
| 20260505080743 | 9 | 126 | 1.6 | 1.6 | 0.00 | 0.00 | 0.00 | 98 | 1005.8 |
| 20260505080239 | 10 | 132 | 3.2 | 4.8 | 0.00 | 0.00 | 0.00 | 98 | 1005.8 |
| 20260505075735 | 9 | 183 | 3.2 | 4.8 | 0.00 | 0.00 | 0.00 | 98 | 1006.0 |
| 20260505075232 | 10 | 171 | 3.2 | 4.8 | 0.00 | 0.00 | 0.00 | 98 | 1005.9 |
| 20260505074729 | 9 | 140 | 4.8 | 4.8 | 0.00 | 0.00 | 0.00 | 98 | 1005.8 |
| 20260505074226 | 9 | 187 | 1.6 | 3.2 | 0.00 | 0.00 | 0.00 | 98 | 1006.0 |
| 20260505073724 | 9 | 157 | 1.6 | 1.6 | 0.00 | 0.00 | 0.00 | 97 | 1005.8 |
| 20260505073221 | 10 | 151 | 3.2 | 3.2 | 0.00 | 0.00 | 0.00 | 97 | 1005.6 |
| 20260505072717 | 10 | 144 | 3.2 | 3.2 | 0.00 | 0.00 | 0.00 | 97 | 1006.0 |
| 20260505072214 | 10 | 126 | 0.0 | 3.2 | 0.00 | 0.00 | 0.00 | 97 | 1005.7 |
| 20260505071709 | 10 | 169 | 1.6 | 3.2 | 0.00 | 0.00 | 0.00 | 96 | 1005.7 |
| 20260505071207 | 10 | 195 | 0.0 | 3.2 | 0.00 | 0.00 | 0.00 | 95 | 1005.8 |
| 20260505070705 | 10 | 209 | 3.2 | 3.2 | 0.00 | 0.00 | 0.00 | 95 | 1005.6 |
| 20260505070200 | 10 | 225 | 3.2 | 4.8 | 0.00 | 0.00 | 0.00 | 94 | 1005.6 |
| 20260505065656 | 11 | 199 | 3.2 | 4.8 | 0.00 | 0.00 | 0.00 | 93 | 1005.7 |
| 20260505065153 | 11 | 200 | 0.0 | 1.6 | 0.00 | 0.00 | 0.00 | 93 | 1005.6 |
| 20260505064650 | 11 | 220 | 1.6 | 3.2 | 0.00 | 0.00 | 0.00 | 92 | 1005.6 |
| 20260505064148 | 11 | 209 | 3.2 | 3.2 | 0.00 | 0.00 | 0.00 | 91 | 1005.6 |
| 20260505063645 | 11 | 199 | 3.2 | 3.2 | 0.00 | 0.00 | 0.00 | 91 | 1005.8 |
| 20260505063142 | 12 | 209 | 4.8 | 4.8 | 0.00 | 0.00 | 0.00 | 90 | 1005.6 |
| 20260505062638 | 12 | 205 | 4.8 | 4.8 | 0.00 | 0.00 | 0.00 | 90 | 1005.6 |
| 20260505062135 | 12 | 195 | 3.2 | 4.8 | 0.00 | 0.00 | 0.00 | 90 | 1005.5 |
| 20260505061632 | 12 | 194 | 4.8 | 4.8 | 0.00 | 0.00 | 0.00 | 90 | 1005.5 |
| 20260505061131 | 12 | 225 | 3.2 | 3.2 | 0.00 | 0.00 | 0.00 | 90 | 1005.6 |
| 20260505060628 | 12 | 195 | 3.2 | 4.8 | 0.00 | 0.00 | 0.00 | 90 | 1005.4 |
| 20260505060125 | 12 | 199 | 3.2 | 4.8 | 0.00 | 0.00 | 0.00 | 90 | 1005.6 |
| 20260505055620 | 12 | 198 | 4.8 | 8.0 | 0.00 | 0.00 | 0.00 | 90 | 1005.5 |
| 20260505055116 | 12 | 218 | 6.4 | 11.3 | 0.00 | 0.00 | 0.00 | 90 | 1005.7 |
| 20260505054614 | 12 | 180 | 4.8 | 6.4 | 0.00 | 0.00 | 0.00 | 90 | 1005.6 |
| 20260505054112 | 12 | 114 | 9.7 | 11.3 | 0.00 | 0.00 | 0.00 | 89 | 1005.6 |
| 20260505053609 | 12 | 197 | 3.2 | 4.8 | 0.00 | 0.00 | 0.00 | 89 | 1005.9 |
| 20260505053105 | 12 | 191 | 0.0 | 6.4 | 0.00 | 0.00 | 0.00 | 90 | 1005.6 |
| 20260505052602 | 12 | 208 | 9.7 | 11.3 | 0.00 | 0.00 | 0.00 | 90 | 1005.9 |
| 20260505052100 | 12 | 175 | 1.6 | 4.8 | 0.00 | 0.00 | 0.00 | 90 | 1005.7 |
| 20260505051557 | 12 | 203 | 4.8 | 6.4 | 0.00 | 0.00 | 0.00 | 90 | 1005.9 |
| 20260505051055 | 12 | 225 | 3.2 | 6.4 | 0.00 | 0.00 | 0.00 | 90 | 1005.7 |
| 20260505050552 | 12 | 220 | 1.6 | 4.8 | 0.00 | 0.00 | 0.00 | 90 | 1005.7 |
| 20260505041520 | 12 | 241 | 3.2 | 6.4 | 0.00 | 0.00 | 0.00 | 88 | 1005.3 |
| 20260505041018 | 12 | 228 | 0.0 | 6.4 | 0.00 | 0.00 | 0.00 | 88 | 1005.2 |
| 20260505040515 | 12 | 142 | 1.6 | 12.9 | 0.00 | 0.00 | 0.00 | 88 | 1005.4 |
| 20260505040012 | 12 | 216 | 4.8 | 8.0 | 0.00 | 0.00 | 0.00 | 88 | 1005.3 |
| 20260505035508 | 12 | 228 | 3.2 | 6.4 | 0.00 | 0.00 | 0.00 | 89 | 1005.2 |
| 20260505035005 | 12 | 228 | 0.0 | 4.8 | 0.00 | 0.00 | 0.00 | 89 | 1005.2 |
| 20260505034501 | 12 | 90 | 3.2 | 3.2 | 0.00 | 0.00 | 0.00 | 89 | 1005.1 |
| 20260505033958 | 12 | 203 | 1.6 | 3.2 | 0.00 | 0.00 | 0.00 | 89 | 1005.2 |
| 20260505033455 | 12 | 131 | 4.8 | 4.8 | 0.00 | 0.00 | 0.00 | 89 | 1005.2 |
| 20260505032954 | 12 | 187 | 1.6 | 4.8 | 0.00 | 0.00 | 0.00 | 89 | 1005.3 |
| 20260505032451 | 11 | 208 | 3.2 | 4.8 | 0.00 | 0.00 | 0.00 | 89 | 1005.2 |
| 20260505031946 | 11 | 180 | 1.6 | 3.2 | 0.00 | 0.00 | 0.00 | 90 | 1005.2 |
| 20260505031444 | 11 | 194 | 0.0 | 3.2 | 0.00 | 0.00 | 0.00 | 89 | 1005.2 |
| 20260505030941 | 12 | 184 | 3.2 | 3.2 | 0.00 | 0.00 | 0.00 | 89 | 1005.1 |
| 20260505030437 | 12 | 199 | 3.2 | 3.2 | 0.00 | 0.00 | 0.00 | 89 | 1005.0 |
| 20260505025932 | 12 | 217 | 3.2 | 4.8 | 0.00 | 0.00 | 0.00 | 89 | 1005.1 |
| 20260505025429 | 12 | 157 | 0.0 | 3.2 | 0.00 | 0.00 | 0.00 | 89 | 1004.9 |
| 20260505024928 | 12 | 164 | 3.2 | 4.8 | 0.00 | 0.00 | 0.00 | 89 | 1005.1 |
| 20260505024425 | 12 | 75 | 0.0 | 3.2 | 0.00 | 0.00 | 0.00 | 89 | 1005.1 |
| 20260505023922 | 12 | 212 | 0.0 | 4.8 | 0.00 | 0.00 | 0.00 | 89 | 1005.2 |
| 20260505023419 | 12 | 221 | 3.2 | 6.4 | 0.00 | 0.00 | 0.00 | 88 | 1005.3 |
| 20260505022916 | 12 | 196 | 3.2 | 8.0 | 0.00 | 0.00 | 0.00 | 88 | 1005.2 |
| 20260505022414 | 12 | 187 | 1.6 | 3.2 | 0.00 | 0.00 | 0.00 | 88 | 1005.1 |
| 20260505021911 | 11 | 196 | 3.2 | 4.8 | 0.00 | 0.00 | 0.00 | 88 | 1004.9 |
| 20260505021407 | 12 | 199 | 3.2 | 3.2 | 0.00 | 0.00 | 0.00 | 88 | 1004.8 |
| 20260505020903 | 12 | 198 | 1.6 | 4.8 | 0.00 | 0.00 | 0.00 | 88 | 1004.9 |
| 20260505020359 | 12 | 210 | 3.2 | 3.2 | 0.00 | 0.00 | 0.00 | 88 | 1004.7 |
| 20260505015856 | 11 | 206 | 1.6 | 3.2 | 0.00 | 0.00 | 0.00 | 89 | 1004.8 |
| 20260505015353 | 11 | 140 | 1.6 | 3.2 | 0.00 | 0.00 | 0.00 | 88 | 1004.7 |
| 20260505014850 | 11 | 204 | 3.2 | 3.2 | 0.00 | 0.00 | 0.00 | 88 | 1004.6 |
| 20260505014347 | 11 | 203 | 1.6 | 4.8 | 0.00 | 0.00 | 0.00 | 88 | 1004.8 |
| 20260505013843 | 11 | 111 | 0.0 | 1.6 | 0.00 | 0.00 | 0.00 | 87 | 1004.5 |
| 20260505013341 | 12 | 180 | 1.6 | 4.8 | 0.00 | 0.00 | 0.00 | 87 | 1004.8 |
| 20260505012839 | 12 | 204 | 3.2 | 4.8 | 0.00 | 0.00 | 0.00 | 87 | 1004.7 |
| 20260505012337 | 12 | 216 | 4.8 | 4.8 | 0.00 | 0.00 | 0.00 | 87 | 1004.5 |
| 20260505011833 | 12 | 180 | 1.6 | 3.2 | 0.00 | 0.00 | 0.00 | 87 | 1004.6 |
| 20260505011330 | 12 | 194 | 3.2 | 4.8 | 0.00 | 0.00 | 0.00 | 86 | 1004.4 |
| 20260505010825 | 12 | 220 | 0.0 | 3.2 | 0.00 | 0.00 | 0.00 | 87 | 1004.5 |
| 20260505010322 | 12 | 191 | 1.6 | 3.2 | 0.00 | 0.00 | 0.00 | 86 | 1004.5 |
| 20260505005818 | 12 | 187 | 1.6 | 4.8 | 0.00 | 0.00 | 0.00 | 86 | 1004.4 |
| 20260505005315 | 12 | 231 | 3.2 | 6.4 | 0.00 | 0.00 | 0.00 | 86 | 1004.1 |
| 20260505004813 | 12 | 209 | 4.8 | 6.4 | 0.00 | 0.00 | 0.00 | 85 | 1004.1 |
| 20260505004308 | 12 | 203 | 0.0 | 6.4 | 0.00 | 0.00 | 0.00 | 85 | 1004.1 |
| 20260505003806 | 12 | 204 | 3.2 | 4.8 | 0.00 | 0.00 | 0.00 | 85 | 1003.7 |
| 20260505003303 | 12 | 204 | 3.2 | 4.8 | 0.00 | 0.00 | 0.00 | 85 | 1003.9 |
| 20260505002759 | 12 | 189 | 3.2 | 4.8 | 0.00 | 0.00 | 0.00 | 85 | 1003.8 |
| 20260505002257 | 12 | 225 | 0.0 | 4.8 | 0.00 | 0.00 | 0.00 | 84 | 1003.7 |
| 20260505001755 | 12 | 216 | 3.2 | 4.8 | 0.00 | 0.00 | 0.00 | 84 | 1003.4 |
| 20260505001252 | 12 | 216 | 4.8 | 8.0 | 0.00 | 0.00 | 0.00 | 83 | 1003.4 |
| 20260505000749 | 12 | 196 | 4.8 | 8.0 | 0.00 | 0.00 | 0.00 | 83 | 1003.4 |
| 20260505000246 | 12 | 236 | 6.4 | 8.0 | 0.00 | 0.00 | 0.00 | 84 | 1003.4 |
| 20260504235743 | 12 | 186 | 1.6 | 4.8 | 0.00 | 0.00 | 0.00 | 84 | 1003.0 |
| 20260504235239 | 12 | 234 | 4.8 | 4.8 | 0.00 | 0.00 | 0.00 | 84 | 1003.2 |
| 20260504234736 | 13 | 259 | 3.2 | 9.7 | 0.00 | 0.00 | 0.00 | 83 | 1003.2 |
| 20260504234234 | 13 | 208 | 4.8 | 8.0 | 0.00 | 0.00 | 0.00 | 83 | 1003.1 |
| 20260504233730 | 13 | 201 | 3.2 | 8.0 | 0.00 | 0.00 | 0.00 | 84 | 1002.9 |
| 20260504233226 | 13 | 236 | 3.2 | 6.4 | 0.00 | 0.00 | 0.00 | 83 | 1002.9 |
| 20260504232723 | 13 | 190 | 4.8 | 9.7 | 0.00 | 0.00 | 0.00 | 82 | 1002.5 |
| 20260504232220 | 13 | 249 | 4.8 | 12.9 | 0.00 | 0.00 | 0.00 | 82 | 1002.8 |
| 20260504231716 | 13 | 301 | 3.2 | 6.4 | 0.00 | 0.00 | 0.00 | 82 | 1002.4 |
| 20260504231213 | 13 | 267 | 4.8 | 11.3 | 0.00 | 0.00 | 0.00 | 81 | 1002.5 |
| 20260504230709 | 13 | 213 | 6.4 | 14.5 | 0.00 | 0.00 | 0.00 | 81 | 1002.5 |
| 20260504230208 | 13 | 210 | 6.4 | 9.7 | 0.00 | 0.00 | 0.00 | 80 | 1002.5 |
| 20260504225706 | 13 | 263 | 6.4 | 12.9 | 0.00 | 0.00 | 0.00 | 79 | 1002.1 |
| 20260504225202 | 13 | 270 | 3.2 | 9.7 | 0.00 | 0.00 | 0.00 | 80 | 1002.1 |
| 20260504224700 | 14 | 236 | 6.4 | 12.9 | 0.00 | 0.00 | 0.00 | 78 | 1002.0 |
| 20260504224156 | 14 | 210 | 0.0 | 11.3 | 0.00 | 0.00 | 0.00 | 78 | 1002.0 |
| 20260504223653 | 14 | 241 | 3.2 | 6.4 | 0.00 | 0.00 | 0.00 | 78 | 1001.7 |
| 20260504223148 | 15 | 265 | 6.4 | 9.7 | 0.00 | 0.00 | 0.00 | 77 | 1001.8 |
| 20260504222646 | 15 | 288 | 6.4 | 11.3 | 0.00 | 0.00 | 0.00 | 76 | 1001.7 |
| 20260504222142 | 15 | 270 | 1.6 | 11.3 | 0.00 | 0.00 | 0.00 | 76 | 1001.7 |
| 20260504221640 | 15 | 215 | 8.0 | 9.7 | 0.00 | 0.00 | 0.00 | 76 | 1001.5 |
| 20260504221137 | 15 | 231 | 8.0 | 14.5 | 0.00 | 0.00 | 0.00 | 75 | 1001.8 |
| 20260504220633 | 15 | 223 | 8.0 | 12.9 | 0.00 | 0.00 | 0.00 | 75 | 1001.5 |
| 20260504220131 | 15 | 251 | 3.2 | 17.7 | 0.00 | 0.00 | 0.00 | 75 | 1001.5 |
| 20260504215626 | 15 | 214 | 3.2 | 9.7 | 0.00 | 0.00 | 0.00 | 75 | 1001.3 |
| 20260504215119 | 15 | 256 | 8.0 | 11.3 | 0.00 | 0.00 | 0.00 | 75 | 1001.5 |
| 20260504214615 | 15 | 283 | 3.2 | 9.7 | 0.00 | 0.00 | 0.00 | 74 | 1001.3 |
| 20260504214111 | 15 | 255 | 1.6 | 11.3 | 0.00 | 0.00 | 0.00 | 75 | 1001.3 |
| 20260504213608 | 15 | 268 | 6.4 | 12.9 | 0.00 | 0.00 | 0.00 | 75 | 1001.5 |
| 20260504213105 | 15 | 264 | 8.0 | 12.9 | 0.00 | 0.00 | 0.00 | 75 | 1001.4 |
| 20260504212600 | 15 | 223 | 6.4 | 12.9 | 0.00 | 0.00 | 0.00 | 74 | 1001.3 |
| 20260504212058 | 15 | 186 | 1.6 | 12.9 | 0.00 | 0.00 | 0.00 | 73 | 1001.2 |
| 20260504211555 | 15 | 207 | 0.0 | 9.7 | 0.00 | 0.00 | 0.00 | 73 | 1001.2 |
| 20260504211051 | 15 | 262 | 8.0 | 11.3 | 0.00 | 0.00 | 0.00 | 74 | 1001.3 |
| 20260504210549 | 15 | 241 | 6.4 | 14.5 | 0.00 | 0.00 | 0.00 | 74 | 1001.0 |
| 20260504210045 | 14 | 266 | 4.8 | 19.3 | 0.00 | 0.00 | 0.00 | 74 | 1001.1 |
| 20260504205543 | 15 | 215 | 8.0 | 24.1 | 0.00 | 0.00 | 0.00 | 74 | 1001.2 |
| 20260504205041 | 15 | 225 | 9.7 | 11.3 | 0.00 | 0.00 | 0.00 | 74 | 1001.3 |
| 20260504204539 | 15 | 246 | 9.7 | 11.3 | 0.00 | 0.00 | 0.00 | 74 | 1001.2 |
| 20260504204038 | 15 | 210 | 9.7 | 12.9 | 0.00 | 0.00 | 0.00 | 73 | 1001.3 |
| 20260504203535 | 14 | 238 | 8.0 | 12.9 | 0.00 | 0.00 | 0.00 | 74 | 1001.0 |
| 20260504203032 | 13 | 239 | 11.3 | 14.5 | 0.00 | 0.00 | 0.00 | 75 | 1001.0 |
| 20260504202528 | 14 | 225 | 8.0 | 14.5 | 0.00 | 0.00 | 0.00 | 75 | 1001.2 |
| 20260504202025 | 14 | 257 | 9.7 | 16.1 | 0.00 | 0.00 | 0.00 | 76 | 1001.2 |
| 20260504201522 | 14 | 226 | 11.3 | 16.1 | 0.00 | 0.00 | 0.00 | 75 | 1001.2 |
| 20260504201020 | 14 | 229 | 11.3 | 16.1 | 0.00 | 0.00 | 0.00 | 75 | 1001.2 |
| 20260504200516 | 14 | 249 | 4.8 | 9.7 | 0.00 | 0.00 | 0.00 | 76 | 1001.3 |
| 20260504200013 | 14 | 220 | 4.8 | 6.4 | 0.00 | 0.00 | 0.00 | 75 | 1000.8 |
| 20260504195509 | 14 | 232 | 8.0 | 12.9 | 0.00 | 0.00 | 0.00 | 75 | 1001.1 |
| 20260504195006 | 14 | 214 | 6.4 | 12.9 | 0.00 | 0.00 | 0.00 | 76 | 1000.9 |
| 20260504194502 | 13 | 237 | 8.0 | 11.3 | 0.00 | 0.00 | 0.00 | 77 | 1001.0 |
| 20260504193957 | 14 | 270 | 4.8 | 6.4 | 0.00 | 0.00 | 0.00 | 77 | 1001.1 |
| 20260504193455 | 14 | 243 | 1.6 | 9.7 | 0.00 | 0.00 | 0.00 | 77 | 1000.8 |
| 20260504192954 | 13 | 257 | 3.2 | 12.9 | 0.00 | 0.00 | 0.00 | 76 | 1001.1 |
| 20260504192450 | 14 | 238 | 4.8 | 8.0 | 0.00 | 0.00 | 0.00 | 78 | 1001.2 |
| 20260504191949 | 13 | 222 | 11.3 | 12.9 | 0.00 | 0.00 | 0.00 | 77 | 1001.2 |
| 20260504191447 | 14 | 270 | 3.2 | 14.5 | 0.00 | 0.00 | 0.00 | 75 | 1001.4 |
| 20260504190942 | 14 | 231 | 14.5 | 14.5 | 0.00 | 0.00 | 0.00 | 75 | 1001.4 |
| 20260504190438 | 14 | 238 | 4.8 | 9.7 | 0.00 | 0.00 | 0.00 | 73 | 1001.3 |
| 20260504185935 | 14 | 248 | 8.0 | 14.5 | 0.00 | 0.00 | 0.00 | 72 | 1001.3 |
| 20260504185432 | 15 | 242 | 17.7 | 27.4 | 0.00 | 0.00 | 0.00 | 71 | 1001.2 |
| 20260504184928 | 15 | 239 | 8.0 | 22.5 | 0.00 | 0.00 | 0.00 | 67 | 1001.2 |
| 20260504184424 | 15 | 233 | 11.3 | 20.9 | 0.00 | 0.00 | 0.00 | 65 | 1001.0 |
| 20260504183920 | 15 | 222 | 11.3 | 19.3 | 0.00 | 0.00 | 0.00 | 62 | 1000.9 |
| 20260504183417 | 16 | 255 | 11.3 | 20.9 | 0.00 | 0.00 | 0.00 | 60 | 1000.9 |
| 20260504182915 | 16 | 227 | 4.8 | 25.7 | 0.00 | 0.00 | 0.00 | 57 | 1000.7 |
| 20260504182412 | 16 | 208 | 12.9 | 20.9 | 0.00 | 0.00 | 0.00 | 53 | 1000.4 |
| 20260504181909 | 16 | 270 | 3.2 | 14.5 | 0.00 | 0.00 | 0.00 | 50 | 1000.4 |
| 20260504181406 | 17 | 245 | 9.7 | 24.1 | 0.00 | 0.00 | 0.00 | 50 | 1000.3 |
| 20260504180905 | 17 | 242 | 9.7 | 11.3 | 0.00 | 0.00 | 0.00 | 48 | 1000.0 |
| 20260504180403 | 17 | 233 | 8.0 | 9.7 | 0.00 | 0.00 | 0.00 | 48 | 1000.2 |
| 20260504175901 | 17 | 227 | 4.8 | 19.3 | 0.00 | 0.00 | 0.00 | 49 | 999.9 |
| 20260504175357 | 18 | 238 | 9.7 | 16.1 | 0.00 | 0.00 | 0.00 | 46 | 1000.1 |
| 20260504174855 | 17 | 225 | 6.4 | 11.3 | 0.00 | 0.00 | 0.00 | 47 | 1000.0 |
| 20260504174353 | 18 | 267 | 4.8 | 12.9 | 0.00 | 0.00 | 0.00 | 46 | 1000.0 |
| 20260504173850 | 17 | 236 | 8.0 | 8.0 | 0.00 | 0.00 | 0.00 | 44 | 1000.1 |
| 20260504173346 | 16 | 254 | 3.2 | 11.3 | 0.00 | 0.00 | 0.00 | 46 | 999.9 |
| 20260504172843 | 17 | 253 | 3.2 | 8.0 | 0.00 | 0.00 | 0.00 | 46 | 999.9 |
| 20260504172340 | 17 | 259 | 3.2 | 6.4 | 0.00 | 0.00 | 0.00 | 43 | 1000.0 |
| 20260504171835 | 17 | 274 | 6.4 | 11.3 | 0.00 | 0.00 | 0.00 | 44 | 1000.1 |
| 20260504171333 | 17 | 301 | 14.5 | 14.5 | 0.00 | 0.00 | 0.00 | 42 | 1000.3 |
| 20260504170830 | 17 | 230 | 8.0 | 16.1 | 0.00 | 0.00 | 0.00 | 44 | 1000.4 |
| 20260504170327 | 18 | 254 | 0.0 | 16.1 | 0.00 | 0.00 | 0.00 | 43 | 1000.4 |
| 20260504160245 | 16 | 286 | 1.6 | 9.7 | 0.00 | 0.00 | 0.00 | 47 | 1001.0 |
| 20260504150711 | 14 | 270 | 4.8 | 24.1 | 0.00 | 0.00 | 0.00 | 51 | 1001.6 |
| 20260504150207 | 14 | 270 | 12.9 | 19.3 | 0.00 | 0.00 | 0.00 | 49 | 1001.7 |
| 20260504141137 | 13 | 234 | 4.8 | 17.7 | 0.00 | 0.00 | 0.00 | 52 | 1002.0 |
| 20260504140633 | 12 | 234 | 8.0 | 27.4 | 0.00 | 0.00 | 0.00 | 59 | 1002.0 |
| 20260504140129 | 12 | 270 | 3.2 | 11.3 | 0.00 | 0.00 | 0.00 | 56 | 1001.7 |
| 20260504130557 | 10 | 270 | 0.0 | 9.7 | 0.00 | 0.00 | 0.00 | 72 | 1001.9 |